Du Bois, PA

5:26 PM EDT on October 23, 2017 (GMT -0400)
Du Bois-Jefferson County

Weather History for KDUJ - January, 2013

Change the Weather History Date:

Sunday, January 6, 2013

  Actual Average Record
Temperature  
Mean Temperature 31 °F 24 °F  
Max Temperature 33 °F 31 °F 58 °F (2007)
Min Temperature 28 °F 17 °F -9 °F (2014)
Degree Days  
Heating Degree Days 34 41  
Month to date heating degree days 252 246  
Since 1 July heating degree days 2710 2908  
Cooling Degree Days 0 0  
Month to date cooling degree days 0 0  
Year to date cooling degree days 0 0  
Moisture  
Dew Point 25 °F    
Average Humidity 81    
Maximum Humidity 92    
Minimum Humidity 69    
Precipitation  
Precipitation T in 0.11 in 1.62 in (2005)
Month to date precipitation 0.01 0.64  
Sea Level Pressure  
Sea Level Pressure 30.01 in    
Wind  
Wind Speed 11 mph (SW)    
Max Wind Speed 17 mph    
Max Gust Speed 25 mph    
Visibility 7 miles    
Events Snow    
T = Trace of Precipitation, MM = Missing Value Source: NWS Daily Summary

Daily Weather History Graph

Daily Weather History Graph

Search for Another Location

Airport or City:

Trip Planner

Search our weather history database for the weather conditions in past years. The results will help you decide how hot, cold, wet, or windy it might be!

Date:

Astronomy

Jan. 06, 2013 Rise Set
Actual Time 7:41 AM EST 5:02 PM EST
Civil Twilight 7:10 AM EST 5:33 PM EST
Nautical Twilight 6:35 AM EST 6:07 PM EST
Astronomical Twilight 6:02 AM EST 6:40 PM EST
Moon 1:52 AM EST (1/6) 12:29 PM EST (1/6)
Length of Visible Light 10h 22m
Length of Day
9h 21m
Waning Crescent, 33% of the Moon is Illuminated
Jan 6
Waning Crescent
Jan 11
New
Jan 18
First Quarter
Jan 26
Full
Feb 3
Last Quarter

Hourly Weather History & Observations

Time (EST) Temp. Windchill Dew Point Humidity Pressure Visibility Wind Dir Wind Speed Gust Speed Precip Events Conditions
12:56 AM 28.9 °F 21.1 °F 21.0 °F 72% 30.12 in 10.0 mi SW 8.1 mph - N/A   Overcast
1:56 AM 28.9 °F 20.4 °F 21.0 °F 72% 30.11 in 10.0 mi SW 9.2 mph - N/A   Overcast
3:56 AM 30.0 °F 21.7 °F 21.9 °F 72% 30.08 in 10.0 mi SW 9.2 mph - N/A   Overcast
4:37 AM 28.4 °F 19.7 °F 21.2 °F 74% 30.01 in 10.0 mi SW 9.2 mph - N/A   Overcast
4:56 AM 28.9 °F 21.1 °F 21.9 °F 75% 30.06 in 10.0 mi SW 8.1 mph - N/A   Overcast
5:56 AM 30.0 °F 21.7 °F 21.9 °F 72% 30.05 in 10.0 mi SW 9.2 mph - N/A   Overcast
6:25 AM 30.2 °F 21.3 °F 23.0 °F 75% 29.99 in 10.0 mi SW 10.4 mph - N/A   Overcast
6:56 AM 30.0 °F 22.4 °F 23.0 °F 75% 30.06 in 10.0 mi SW 8.1 mph - N/A   Overcast
7:49 AM 30.2 °F 23.4 °F 23.0 °F 75% 29.98 in 10.0 mi SW 6.9 mph - N/A   Overcast
7:56 AM 28.9 °F 22.8 °F 23.0 °F 78% 30.04 in 10.0 mi SW 5.8 mph - N/A   Overcast
8:56 AM 30.0 °F 21.1 °F 24.1 °F 79% 30.05 in 8.0 mi SW 10.4 mph - N/A   Overcast
9:26 AM 30.2 °F 21.3 °F 24.8 °F 80% 29.99 in 9.0 mi SW 10.4 mph - N/A   Overcast
9:56 AM 30.0 °F 20.5 °F 24.1 °F 79% 30.05 in 2.5 mi SW 11.5 mph - 0.00 in Snow Light Snow
10:16 AM 30.2 °F 20.2 °F 24.8 °F 80% 29.99 in 3.0 mi SW 12.7 mph - 0.00 in   Haze
10:56 AM 32.0 °F 23.0 °F 24.1 °F 73% 30.04 in 10.0 mi SW 11.5 mph - 0.00 in   Overcast
11:56 AM 32.0 °F 22.1 °F 25.0 °F 75% 30.00 in 5.0 mi SW 13.8 mph - 0.00 in   Haze
12:41 PM 33.8 °F 24.3 °F 24.8 °F 70% 29.93 in 10.0 mi WSW 13.8 mph - N/A   Overcast
12:56 PM 33.1 °F 23.9 °F 25.0 °F 72% 29.97 in 10.0 mi WSW 12.7 mph - N/A   Overcast
1:33 PM 33.8 °F 26.4 °F 26.6 °F 75% 29.91 in 10.0 mi SW 9.2 mph - N/A   Overcast
1:56 PM 33.1 °F 24.4 °F 26.1 °F 75% 29.96 in 5.0 mi SW 11.5 mph 20.7 mph N/A   Haze
2:45 PM 33.8 °F 25.3 °F 26.6 °F 75% 29.91 in 9.0 mi SW 11.5 mph 18.4 mph N/A   Overcast
2:56 PM 33.1 °F 24.4 °F 26.1 °F 75% 29.97 in 9.0 mi SW 11.5 mph - N/A   Overcast
3:25 PM 33.8 °F 25.3 °F 26.6 °F 75% 29.92 in 9.0 mi SW 11.5 mph 19.6 mph N/A   Overcast
3:41 PM 33.8 °F 24.8 °F 26.6 °F 75% 29.93 in 4.0 mi SW 12.7 mph - N/A   Haze
3:56 PM 32.0 °F 23.0 °F 26.1 °F 79% 29.99 in 6.0 mi SW 11.5 mph - N/A   Haze
4:56 PM 32.0 °F 23.6 °F 27.0 °F 82% 30.00 in 6.0 mi SW 10.4 mph - N/A   Haze
5:15 PM 32.0 °F 23.0 °F 26.6 °F 80% 29.95 in 6.0 mi SW 11.5 mph - N/A   Haze
5:42 PM 32.0 °F 22.5 °F 28.4 °F 87% 29.96 in 2.0 mi WSW 12.7 mph - 0.00 in Snow Light Snow
5:56 PM 30.9 °F 21.2 °F 28.0 °F 89% 30.02 in 2.5 mi WSW 12.7 mph - 0.00 in Snow Light Snow
6:16 PM 30.2 °F 21.3 °F 28.4 °F 93% 29.97 in 1.5 mi WSW 10.4 mph - 0.00 in Snow Light Snow
6:45 PM 30.2 °F 20.8 °F 28.4 °F 93% 29.99 in 1.8 mi WSW 11.5 mph - 0.00 in Snow Light Snow
7:56 PM 30.9 °F 20.7 °F 28.9 °F 92% 30.06 in 3.0 mi West 13.8 mph - 0.00 in   Overcast
8:56 PM 30.9 °F 21.7 °F 28.9 °F 92% 30.07 in 5.0 mi West 11.5 mph - 0.00 in   Overcast
9:56 PM 30.9 °F 19.8 °F 28.9 °F 92% 30.09 in 6.0 mi West 16.1 mph - N/A   Overcast
10:56 PM 30.9 °F 21.2 °F 28.0 °F 89% 30.12 in 6.0 mi West 12.7 mph - N/A   Overcast
11:56 PM 30.9 °F 21.7 °F 28.0 °F 89% 30.14 in 9.0 mi West 11.5 mph - N/A   Overcast